Погода в Владимирской

Россия / Санкт-Петербург и Ленинградская область     59°34′23″N   30°21′39″E
темп.,
°C
ветер,
м/с
пор.,
м/с
влажн.,
%
обл.,
%
осадки,
мм/ч
давл.,
гПа
погр.,
м
31 июля, сб
сб3100:00+15ю4116874 0.0 998372
03:00+16ю61365100 0.0 9951260
06:00+14ююз5118898 0.5 994959
09:00+15юз6128346 0.8 995918
12:00+20з7115853 0.3 9971578
15:00+23з711416 0.4 9982212
18:00+23зсз594458 0.0 10001906
21:00+17юз226899 0.0 100120
1 августа, вс
вс100:00+16юз310835 0.0 1002314
03:00+14юз3998100 0.0 1003305
06:00+14ююз299599 0.0 1003267
09:00+16ю399664 1.3 1002453
12:00+21юз576225 0.4 10021262
15:00+22юз4951100 0.8 10011873
18:00+19юз512764 0.7 10021053
21:00+18зюз5116951 0.7 1003828
2 августа, пн
пн200:00+16зюз31084100 0.0 1004472
03:00+13юз3109321 0.0 1005290
06:00+13ююз289363 0.0 1005221
09:00+19юз3661100 0.0 1005810
12:00+22ююз3457100 0.2 10031503
15:00+19ююв3682100 1.8 1002287
18:00+15ю1398100 3.8 1002199
21:00+15з1398100 5.7 100098
3 августа, вт
вт300:00+15з2497100 0.1 1000134
03:00+13зюз279850 0.3 1000162
06:00+13з310965 0.1 1001321
09:00+16зюз48785 0.1 1002628
12:00+21зюз574843 0.0 10021840
15:00+20з685168 0.1 10041830
18:00+18з585819 0.1 10061475
21:00+14з498113 0.1 1008658
4 августа, ср
ср400:00+13з3985100 0.1 1009378
03:00+13з3880100 0.3 1010220
06:00+12з278148 0.1 1012197
09:00+18сз245211 0.1 1013842
12:00+18ссз1347100 0.0 1014500
15:00+19ююз3341100 0.0 10151192
18:00+20юз234149 0.0 10151028
21:00+15ююз116148 0.0 101611